N5535W KEGE-KASE

Flight info

Callsign N5535W
Flight time 0h 14m
Altitude 17000
Route BEVVR1 APRES DBL
Aircraft B36T/L-BDFGLORY/S

Departure

Time 2026-04-26 23:23
Airport Eagle County Regional Airport (KEGE)

Arrival

Time 2026-04-26 23:37
Airport Aspen-Pitkin County Airport (Sardy Field) (KASE)
Time Latitude Longitude Altitude Speed Heading
2026-04-26 23:14 39.64124 -106.91073 6522 ft 0 kts 262°
2026-04-26 23:19 39.64126 -106.91105 6522 ft 11 kts 331°
2026-04-26 23:20 39.64170 -106.91021 6527 ft 23 kts 88°
2026-04-26 23:20 39.64237 -106.90898 6532 ft 15 kts 57°
2026-04-26 23:20 39.64256 -106.90778 6535 ft 16 kts 79°
2026-04-26 23:20 39.64283 -106.90536 6537 ft 37 kts 78°
2026-04-26 23:21 39.64325 -106.90160 6546 ft 36 kts 80°
2026-04-26 23:21 39.64350 -106.90020 6546 ft 8 kts 17°
2026-04-26 23:21 39.64354 -106.90018 6546 ft 0 kts 16°
2026-04-26 23:22 39.64376 -106.90014 6546 ft 19 kts 360°
2026-04-26 23:22 39.64431 -106.90178 6548 ft 37 kts 258°
2026-04-26 23:22 39.64370 -106.90826 6574 ft 103 kts 269°
2026-04-26 23:22 39.64299 -106.91870 6976 ft 129 kts 257°
2026-04-26 23:23 39.63884 -106.92821 7727 ft 133 kts 227°
2026-04-26 23:23 39.63215 -106.93783 8257 ft 153 kts 231°
2026-04-26 23:23 39.62500 -106.94908 8802 ft 169 kts 233°
2026-04-26 23:23 39.61581 -106.95941 9326 ft 182 kts 211°
2026-04-26 23:24 39.60455 -106.96705 9931 ft 176 kts 213°
2026-04-26 23:24 39.59427 -106.97464 10634 ft 164 kts 215°
2026-04-26 23:24 39.58550 -106.98336 11244 ft 159 kts 231°
2026-04-26 23:24 39.58049 -106.99599 11849 ft 158 kts 252°
2026-04-26 23:25 39.57993 -107.01031 12482 ft 161 kts 268°
2026-04-26 23:25 39.58040 -107.02463 13118 ft 157 kts 267°
2026-04-26 23:25 39.58086 -107.03873 13769 ft 158 kts 266°
2026-04-26 23:25 39.58138 -107.05293 14355 ft 157 kts 268°
2026-04-26 23:26 39.58440 -107.06676 14901 ft 164 kts 278°
2026-04-26 23:26 39.58343 -107.08206 14785 ft 184 kts 243°
2026-04-26 23:26 39.57532 -107.09451 14755 ft 163 kts 224°
2026-04-26 23:26 39.56702 -107.10374 14745 ft 154 kts 223°
2026-04-26 23:27 39.55885 -107.11255 14733 ft 152 kts 223°
2026-04-26 23:27 39.55022 -107.12032 14725 ft 155 kts 206°
2026-04-26 23:27 39.53908 -107.11926 14721 ft 176 kts 165°
2026-04-26 23:27 39.53259 -107.11236 14723 ft 192 kts 138°
2026-04-26 23:28 39.52655 -107.08976 14734 ft 207 kts 109°
2026-04-26 23:28 39.52309 -107.07181 14743 ft 201 kts 122°
2026-04-26 23:28 39.51672 -107.05589 14727 ft 199 kts 128°
2026-04-26 23:28 39.50970 -107.03965 14372 ft 213 kts 128°
2026-04-26 23:29 39.50219 -107.02279 14018 ft 218 kts 129°
2026-04-26 23:29 39.49454 -107.00582 13679 ft 214 kts 128°
2026-04-26 23:29 39.48706 -106.99097 13279 ft 183 kts 143°
2026-04-26 23:29 39.47764 -106.98149 12847 ft 164 kts 163°
2026-04-26 23:30 39.46799 -106.97957 12719 ft 130 kts 191°
2026-04-26 23:30 39.45920 -106.97935 12706 ft 121 kts 191°
2026-04-26 23:30 39.45089 -106.97694 12701 ft 125 kts 178°
2026-04-26 23:30 39.44274 -106.97372 12708 ft 121 kts 175°
2026-04-26 23:31 39.43492 -106.97023 12694 ft 115 kts 174°
2026-04-26 23:31 39.42751 -106.96675 12695 ft 112 kts 176°
2026-04-26 23:31 39.42017 -106.96334 12694 ft 114 kts 174°
2026-04-26 23:31 39.41206 -106.95946 12708 ft 128 kts 173°
2026-04-26 23:32 39.40393 -106.95529 12678 ft 120 kts 171°
2026-04-26 23:32 39.39646 -106.95172 12567 ft 110 kts 174°
2026-04-26 23:32 39.38950 -106.94849 12630 ft 115 kts 180°
2026-04-26 23:32 39.38036 -106.94448 12586 ft 155 kts 170°
2026-04-26 23:33 39.36970 -106.93934 12342 ft 171 kts 170°
2026-04-26 23:33 39.35857 -106.93391 11979 ft 167 kts 170°
2026-04-26 23:33 39.34827 -106.92862 11903 ft 154 kts 172°
2026-04-26 23:33 39.33789 -106.92394 11913 ft 164 kts 169°
2026-04-26 23:34 39.32706 -106.91864 11913 ft 168 kts 169°
2026-04-26 23:34 39.31604 -106.91326 11658 ft 167 kts 168°
2026-04-26 23:34 39.30614 -106.90843 11314 ft 142 kts 172°
2026-04-26 23:34 39.29767 -106.90451 11287 ft 123 kts 173°
2026-04-26 23:35 39.29004 -106.90077 11290 ft 115 kts 173°
2026-04-26 23:35 39.28227 -106.89718 11302 ft 122 kts 172°
2026-04-26 23:35 39.27356 -106.89313 10761 ft 145 kts 172°
2026-04-26 23:35 39.26395 -106.88828 10070 ft 148 kts 168°
2026-04-26 23:36 39.25523 -106.88399 9504 ft 121 kts 172°
2026-04-26 23:36 39.24747 -106.88050 8767 ft 127 kts 161°
2026-04-26 23:36 39.23984 -106.87649 7952 ft 110 kts 159°
2026-04-26 23:36 39.23304 -106.87366 7719 ft 105 kts 157°
2026-04-26 23:37 39.22690 -106.87062 7726 ft 82 kts 159°
2026-04-26 23:37 39.22304 -106.86877 7747 ft 34 kts 156°
2026-04-26 23:37 39.22074 -106.86766 7768 ft 25 kts 155°
2026-04-26 23:37 39.22040 -106.86651 7766 ft 15 kts 41°
2026-04-26 23:38 39.22082 -106.86652 7768 ft 0 kts 341°
2026-04-26 23:38 39.22147 -106.86683 7762 ft 19 kts 340°
2026-04-26 23:38 39.22228 -106.86723 7755 ft 14 kts 339°
2026-04-26 23:38 39.22373 -106.86792 7745 ft 29 kts 340°
2026-04-26 23:39 39.22563 -106.86884 7736 ft 18 kts 338°
2026-04-26 23:39 39.22609 -106.86875 7732 ft 1 kts 68°
2026-04-26 23:39 39.22609 -106.86873 7732 ft 0 kts 68°